Regional Weather Roundup
Issued by NWS Bismarck, ND

Home | Current Version | Previous Version | Text Only | Print | Product List | Glossary On
Versions: 1 2 3 4 5 6 7 8 9 10 11 12 13 14 15 16 17 18 19 20 21 22 23 24 25 26 27 28 29 30 31 32 33 34 35 36 37 38 39 40 41 42 43 44 45 46 47 48 49 50
000
ASUS43 KBIS 111759
RWRBIS

NWR BROADCAST TEXT
NATIONAL WEATHER SERVICE BISMARCK ND
100 PM CDT FRI JUL 11 2014

NOTE: "FAIR" INDICATES FEW OR NO CLOUDS BELOW 12,000 FEET WITH NO
SIGNIFICANT WEATHER AND/OR OBSTRUCTIONS TO VISIBILITY.


CITY           SKY/WX    TMP DP  RH WIND       PRES   REMARKS
WILLISTON      MOSUNNY   75  53  46 N13       30.07S
MINOT          MOSUNNY   73  53  49 NW16G24   30.02R
MINOT AFB      NOT AVBL
BISMARCK       LGT RAIN  80  52  37 N10       30.02R
DICKINSON      NOT AVBL
GARRISON         N/A     77  61  57 N13       30.04R
HETTINGER ARPT SUNNY     81  56  42 NE20      30.07R
JAMESTOWN      NOT AVBL
MANDAN         FAIR      77  55  47 N15       30.04R
$$

CITY           SKY/WX    TMP DP  RH WIND       PRES   REMARKS
GRAND FORKS    MOSUNNY   81  66  60 NW9       29.89R
GRAND FORKS AF NOT AVBL
DEVILS LAKE    MOSUNNY   79  54  41 N9        29.95S
FARGO          MOSUNNY   84  71  65 NW12      29.89R
GWINNER        PTCLDY    84  70  61 N8        29.94R
$$

CITY           SKY/WX    TMP DP  RH WIND       PRES   REMARKS
ABERDEEN       MOSUNNY   83  69  62 NE5       29.93R
MOBRIDGE       MOSUNNY   81  69  67 NE12      29.96R
BUFFALO          N/A     79  54  41 NE16G29   30.03R
RAPID CITY     SUNNY     85  65  51 N14       30.05R
GLASGOW        PTSUNNY   72  52  49 NW15      30.12S
SIDNEY         SUNNY     73  54  49 N7        30.10S
WOLF POINT     SUNNY     77  53  43 N10       30.10R
GLENDIVE       MOSUNNY   79  54  41 N15       30.09R
MILES CITY     SUNNY     80  50  34 E10       30.08S
BAKER          MOSUNNY   71  61  70 VRB3      30.10R
$$

CITY           SKY/WX    TMP DP  RH WIND       PRES   REMARKS
BILLINGS       PTSUNNY   74  55  51 NE10      30.14F
GREAT FALLS    CLOUDY    64  48  56 CALM      30.21S
$$




USA.gov is the U.S. government's official web portal to all federal, state and local government web resources and services.